Hourly Data Report for October 28, 2014

All times are specified in Local Standard Time (LST). Add 1 hour to adjust for Daylight Saving Time where and when it is observed.

FREDERICTON
NEW BRUNSWICK

45°52'08.000" N
66°32'14.000" W
20.70 m
8101505
71700
YFC

Download Data

Hourly Data (October 2014)
Hourly Data Report for October 28, 2014
Temp Definition
°C
Dew Point Temp Definition
°C
Rel Hum Definition
%
Wind Dir Definition
10's deg

Wind Spd Definition
km/h
Visibility Definition
km
Stn Press Definition
kPa
Hmdx Definition


Wind Chill Definition


Weather Definition


TIME
00:00 Legend Double Dagger 6.8 2.1 72 31 15 16.1 100.79     LegendNANA
01:00 Legend Double Dagger 6.9 2.2 72 33 21 16.1 100.88     LegendNANA
02:00 Legend Double Dagger 6.5 1.5 70 31 22 16.1 101.00     LegendNANA
03:00 Legend Double Dagger 6.3 1.6 72 32 17 16.1 101.11     LegendNANA
04:00 Legend Double Dagger 6.0 1.9 75 30 15 16.1 101.20     LegendNANA
05:00 Legend Double Dagger 5.9 1.9 76 31 11 16.1 101.29     LegendNANA
06:00 Legend Double Dagger 5.9 1.8 75 31 9 16.1 101.36     LegendNANA
07:00 Legend Double Dagger 5.8 1.9 76 34 21 16.1 101.41     LegendNANA
08:00 Legend Double Dagger 6.0 2.1 76 34 8 16.1 101.50     LegendNANA
09:00 Legend Double Dagger 6.6 2.0 73 34 13 16.1 101.54     LegendNANA
10:00 Legend Double Dagger 6.8 2.0 72 31 11 16.1 101.59     LegendNANA
11:00 Legend Double Dagger 7.2 1.8 69 31 5 16.1 101.64     LegendNANA
12:00 Legend Double Dagger 7.9 2.4 68 4 8 16.1 101.60     LegendNANA
13:00 Legend Double Dagger 8.8 2.2 63 LegendMM 8 16.1 101.60     LegendNANA
14:00 Legend Double Dagger 9.5 2.8 63 LegendMM 11 16.1 101.60     LegendNANA
15:00 Legend Double Dagger 10.5 3.2 60 21 11 16.1 101.60     LegendNANA
16:00 Legend Double Dagger 9.5 3.1 64 19 4 16.1 101.58     LegendNANA
17:00 Legend Double Dagger 7.4 4.2 80 14 5 16.1 101.58     LegendNANA
18:00 Legend Double Dagger 5.8 3.2 83 10 9 16.1 101.60     LegendNANA
19:00 Legend Double Dagger 5.6 3.1 84 11 8 16.1 101.63     LegendNANA
20:00 Legend Double Dagger 5.8 3.8 87 14 9 16.1 101.60     LegendNANA
21:00 Legend Double Dagger 5.9 4.2 89 18 8 16.1 101.64     LegendNANA
22:00 Legend Double Dagger 6.4 4.7 89 14 5 16.1 101.61     Rain
23:00 Legend Double Dagger 6.6 4.8 88 LegendMM 4 16.1 101.58     LegendNANA

Notes on Data Quality.

Legend

  • E = Estimated
  • M = Missing
  • NA = Not Available
  • ‡ = Partner data that is not subject to review by the National Climate Archives
Date modified: